Wind_Speed
31 32 32 34 35 36 36 36 36 36 34 28 29 32 32 34 34 32 29 24 26 23 23 21 19 19 18 20 20 12 9 19 21 23 20 19 16 15 16 16 15 21 21 18 23 23 28
34 35 35 34 35 38 39 40 41 40 39 38 32 29 33 33 35 36 32 28 26 24 24 23 21 21 20 21 23 19 11 14 25 27 24 23 19 16 15 16 18 6 18 22 22 24 28
38 41 43 43 43 44 44 46 46 46 44 41 34 30 31 33 36 38 37 33 25 26 23 25 22 22 23 20 20 22 23 17 13 22 27 23 23 22 21 18 21 21 23 22 27 29 26
41 45 46 47 48 50 52 49 48 44 38 34 34 27 30 32 33 37 44 38 28 25 27 25 24 23 25 22 23 18 20 24 24 19 19 25 24 23 19 19 16 13 15 16 11 18 20
42 45 47 48 48 50 50 47 36 31 31 28 30 28 30 32 29 35 41 42 33 29 31 25 25 25 24 24 23 22 17 19 22 24 22 17 15 19 19 13 10 13 13 14 15 13 12
43 46 48 48 48 49 49 45 34 34 33 32 26 23 26 23 23 31 38 43 35 29 23 25 27 21 24 26 24 22 20 17 17 21 24 23 19 17 17 17 12 15 17 16 15 9 13
45 48 49 50 50 49 43 33 35 33 31 26 26 26 22 18 18 18 33 28 36 33 35 31 18 31 14 23 24 25 23 19 17 18 20 23 18 20 18 19 19 14 11 13 15 15 23
47 50 51 51 49 43 33 33 34 31 27 25 26 25 18 17 17 19 29 33 33 32 35 27 24 21 27 19 18 25 23 22 20 20 16 17 22 17 15 16 18 17 17 19 19 17 20
50 52 54 53 44 33 32 34 31 29 24 21 24 21 20 18 17 20 32 34 36 29 25 34 25 22 19 18 22 20 21 20 19 18 20 14 6 13 20 16 14 16 16 16 18 19 23
52 55 58 45 34 34 33 31 29 27 23 22 20 18 20 19 17 16 23 37 34 25 14 21 30 29 26 20 16 18 20 17 17 18 14 13 17 19 14 16 14 15 12 14 13 12 9
54 58 52 36 37 36 32 30 29 26 24 21 20 24 24 20 17 17 19 38 33 21 6 16 28 22 29 24 17 20 19 20 14 13 17 8 11 16 15 14 12 11 7 8 9 14 20
54 57 43 36 37 34 31 30 26 25 24 19 26 35 29 20 22 17 17 26 29 10 5 15 26 28 29 27 24 19 24 22 18 13 15 13 14 11 10 9 12 10 6 10 10 10 10
55 56 39 33 32 32 30 29 29 27 19 22 29 21 12 14 18 16 20 15 16 7 13 16 23 28 31 29 20 20 26 26 16 13 17 14 22 17 17 11 11 12 7 2 4 5 8
54 53 33 33 32 31 31 31 29 18 16 23 33 11 10 6 12 19 28 25 8 9 10 13 24 24 22 27 18 17 18 22 20 12 7 11 6 18 17 19 6 15 13 6 5 7 12
54 50 32 33 31 32 32 30 17 13 18 25 31 8 3 7 16 23 28 25 2 16 16 24 25 21 18 24 17 18 19 17 18 19 11 7 5 9 8 7 16 8 18 10 21 27 17
54 48 32 30 30 33 28 22 16 16 19 23 25 3 5 16 20 25 28 17 5 8 16 25 13 15 15 25 15 17 19 15 14 21 16 6 4 6 9 11 14 15 5 6 12 5 11
53 47 32 27 27 29 24 19 19 21 28 19 12 9 13 15 20 21 22 16 8 16 20 7 9 14 14 24 12 19 16 5 16 14 18 10 7 4 11 14 14 18 21 14 10 12 6
52 47 33 25 25 24 19 18 23 28 24 13 4 13 16 15 20 27 16 11 20 21 11 11 9 9 19 20 13 11 9 4 13 14 17 12 5 9 16 10 10 17 16 20 14 11 15
49 47 36 25 23 22 21 20 26 20 12 19 20 22 21 22 13 22 10 20 23 17 12 9 10 11 16 18 8 8 10 12 11 13 11 15 6 4 4 2 13 18 22 27 34 35 35
47 45 39 27 21 20 21 21 16 12 12 19 21 20 21 11 20 14 14 18 23 19 10 11 13 13 13 13 7 10 8 9 13 13 14 11 9 13 10 9 10 20 29 30 31 24 32
44 46 40 30 21 17 18 17 13 10 10 16 18 12 10 12 20 14 15 21 19 13 12 12 10 10 7 5 4 6 8 8 9 13 14 13 16 17 24 25 27 30 29 29 33 41 35
42 45 40 33 21 13 13 13 10 9 10 9 10 10 7 14 17 13 18 15 10 8 9 6 7 6 3 2 4 3 9 8 4 9 13 15 13 13 29 23 15 26 28 25 25 23 27
38 42 41 33 23 11 9 7 5 4 5 2 7 9 12 14 18 17 11 9 8 6 8 8 5 1 2 2 3 6 9 11 10 9 11 15 10 11 10 18 25 8 17 17 15 16 19
34 39 41 36 24 13 7 5 1 2 5 6 2 9 5 10 14 15 14 13 6 9 9 10 7 4 6 3 3 6 6 10 16 17 16 10 11 9 14 16 3 4 16 15 14 12 26
33 36 40 38 29 14 12 11 8 4 3 2 4 11 7 7 11 13 12 13 11 6 3 6 8 5 3 3 3 4 6 6 5 9 16 16 11 6 5 12 20 6 18 22 19 15 29
33 36 39 40 33 18 11 12 13 7 4 8 7 6 10 9 5 10 13 11 8 8 7 3 4 5 6 3 3 2 2 2 2 0 1 16 14 15 4 5 4 11 21 21 15 8 24
31 35 39 40 35 21 11 14 15 12 11 14 9 3 8 11 5 14 13 13 13 7 7 5 4 2 5 6 6 5 5 6 3 4 5 9 18 26 23 10 13 14 19 18 9 12 14
30 35 38 39 35 23 11 12 16 14 15 15 8 5 13 11 6 8 19 15 12 8 7 3 4 6 7 8 5 5 5 4 4 6 5 8 8 7 11 6 9 10 20 10 16 13 12
30 34 38 39 31 21 12 10 17 18 19 17 12 13 9 9 6 8 11 13 12 12 9 8 7 4 4 3 4 5 5 5 5 4 8 7 11 5 9 7 11 17 16 14 16 15 10
Wind_Direction
336 333 331 331 332 333 333 331 328 324 320 313 299 288 273 264 252 247 247 246 261 255 253 247 241 238 232 231 226 227 240 220 212 206 220 227 215 209 217 223 222 233 230 249 242 241 247
335 331 331 331 333 333 333 331 327 323 318 314 306 282 276 263 252 239 239 240 241 252 251 246 236 233 229 231 229 228 227 213 211 207 213 219 212 210 220 224 224 238 242 242 252 250 255
335 335 333 336 336 335 334 331 326 321 317 313 312 296 273 265 250 238 228 235 231 243 244 245 237 230 231 225 229 226 216 211 197 213 215 221 228 225 237 238 239 238 254 259 255 257 257
338 338 336 334 335 336 334 330 324 321 317 314 308 299 278 269 251 237 228 231 223 236 247 243 237 230 233 228 227 226 219 220 221 208 201 213 230 235 231 236 250 250 257 258 260 242 244
338 337 336 334 334 332 328 323 322 320 317 314 307 301 280 265 252 236 231 226 231 222 236 237 238 231 234 224 226 222 218 212 213 215 211 207 223 225 221 222 236 239 244 238 244 267 238
338 338 335 333 331 327 321 317 317 317 317 313 312 310 303 290 263 233 226 224 217 221 204 219 227 227 230 221 222 218 213 207 203 205 202 198 202 217 221 209 218 237 240 250 251 247 274
338 337 335 331 328 322 317 312 306 311 314 308 309 312 308 280 254 247 217 227 209 204 205 208 222 220 224 219 214 214 212 199 196 197 197 201 204 215 223 230 240 260 259 253 250 264 287
338 337 333 329 323 319 315 306 308 311 311 307 304 305 303 281 261 239 206 200 208 195 191 209 209 213 219 214 208 209 202 198 193 198 191 203 222 224 236 230 239 247 255 263 272 280 281
339 337 333 328 328 323 313 313 315 315 313 305 305 299 298 279 262 255 210 208 201 169 191 204 209 214 212 205 201 205 198 192 205 200 203 207 240 224 227 236 233 246 256 266 272 287 285
339 337 333 336 328 325 325 322 319 315 310 306 302 309 288 274 255 255 236 210 195 177 165 184 201 211 208 201 206 200 193 188 187 206 203 226 243 251 235 229 234 256 266 265 274 291 283
340 339 338 331 328 329 329 323 321 318 308 301 298 296 292 300 244 230 224 211 174 164 187 180 189 197 205 200 208 196 192 194 195 186 201 214 227 226 224 231 221 229 269 269 277 280 289
343 340 339 329 331 332 330 328 327 318 313 302 301 310 302 266 234 221 216 209 187 196 164 157 183 189 185 190 203 203 193 203 196 203 224 223 252 216 226 223 214 246 270 281 279 276 262
345 342 340 338 338 336 335 331 328 320 315 321 318 320 318 245 218 196 187 181 177 252 159 163 172 180 184 176 185 195 193 200 198 194 225 237 236 245 229 224 234 221 246 275 216 206 251
346 345 345 344 343 342 337 335 332 328 326 328 334 318 312 236 200 178 174 179 219 160 150 143 162 162 173 173 188 182 189 205 196 202 166 201 208 208 243 221 213 214 209 214 265 247 291
347 349 347 347 344 345 345 344 350 343 344 333 331 323 324 180 182 180 174 190 112 147 153 142 149 153 151 174 182 185 198 206 213 199 189 194 236 205 215 197 196 210 213 260 270 278 279
349 351 347 347 345 348 354 9 14 354 335 334 348 67 133 151 173 165 173 194 322 118 146 142 145 170 165 178 172 182 190 213 203 209 209 225 244 224 219 209 217 214 186 213 214 272 270
352 352 346 347 347 351 5 9 356 338 333 332 352 113 130 158 175 159 166 196 230 133 131 159 164 160 173 172 178 174 191 211 195 198 200 212 220 208 213 226 212 209 227 227 249 233 273
353 354 351 347 350 356 355 350 346 341 351 342 124 123 123 146 160 146 158 157 143 146 138 123 129 141 159 164 158 173 183 186 186 178 192 197 229 240 245 257 247 229 240 227 231 240 238
353 357 356 348 359 1 359 355 351 355 30 77 103 120 128 145 150 177 149 130 154 134 125 125 129 141 149 156 157 179 182 208 200 183 173 197 226 292 301 231 232 238 244 246 251 256 260
353 0 1 355 360 10 11 7 35 55 64 100 113 122 129 141 153 169 144 143 147 146 128 133 123 131 139 156 130 180 179 197 199 185 201 194 234 232 263 288 290 270 272 268 257 256 265
354 1 4 1 359 16 14 21 29 43 63 100 122 108 117 154 159 183 164 141 134 140 142 133 128 127 137 146 200 210 191 192 204 220 217 223 253 255 270 280 289 289 289 295 278 271 257
354 358 3 1 359 13 12 19 47 62 114 89 72 75 93 146 167 148 176 166 145 157 149 152 152 143 54 110 190 201 210 203 211 243 222 238 258 280 290 302 295 293 292 291 286 287 282
355 354 358 4 355 353 360 10 83 72 139 2 13 127 130 158 168 183 187 176 183 187 175 175 176 354 327 315 260 218 223 220 227 220 222 232 260 297 280 315 315 290 328 343 324 305 312
355 352 353 357 359 330 303 293 218 156 359 9 32 160 124 172 183 186 206 186 149 197 201 221 250 249 275 271 258 267 281 252 246 247 238 237 266 272 292 331 276 327 342 0 341 333 347
352 352 348 353 352 336 281 265 257 240 291 270 157 156 111 153 169 176 178 187 203 204 214 230 204 258 253 212 311 324 314 313 305 249 236 232 228 273 278 309 292 326 352 340 337 351 2
349 349 348 349 348 340 283 245 249 235 220 150 175 162 158 156 191 189 184 198 189 216 235 221 248 231 228 267 274 248 266 307 193 180 148 217 227 234 281 309 288 324 342 345 346 5 351
347 347 347 347 344 338 298 234 223 217 199 193 173 124 191 173 196 195 191 202 195 231 255 228 227 276 218 213 247 251 261 245 263 208 189 177 221 234 250 259 275 306 327 335 346 328 334
344 345 344 347 341 335 307 244 216 204 192 187 198 184 174 166 191 206 203 211 231 244 238 198 261 277 216 218 238 258 248 243 256 231 193 191 191 207 223 247 275 311 326 333 319 339 316
340 344 343 345 339 334 316 258 211 200 190 172 151 171 173 188 197 176 185 193 195 203 226 247 231 259 221 191 235 249 250 263 270 268 237 230 210 211 214 244 280 310 308 305 320 336 326
Height
3087 3082 3077 3072 3067 3062 3057 3053 3049 3045 3042 3039 3036 3031 3030 3030 3033 3034 3035 3037 3038 3038 3040 3042 3043 3045 3047 3048 3051 3051 3051 3055 3058 3062 3064 3067 3070 3074 3077 3079 3081 3080 3084 3088 3086 3085 3085
3083 3079 3073 3067 3061 3056 3050 3045 3041 3036 3032 3029 3027 3025 3021 3020 3022 3025 3028 3030 3032 3033 3035 3038 3039 3041 3043 3046 3045 3048 3050 3051 3054 3058 3061 3065 3068 3073 3073 3076 3075 3078 3081 3081 3080 3080 3080
3077 3071 3065 3059 3053 3047 3042 3035 3030 3024 3020 3016 3014 3012 3012 3010 3011 3014 3019 3023 3026 3027 3029 3032 3035 3037 3038 3043 3043 3044 3047 3049 3052 3055 3059 3062 3065 3068 3069 3072 3070 3072 3075 3075 3074 3075 3074
3072 3066 3059 3052 3044 3036 3028 3023 3018 3012 3007 3004 3001 3001 2999 2999 3000 3003 3008 3014 3018 3022 3024 3027 3031 3032 3033 3037 3039 3041 3043 3046 3049 3053 3056 3060 3062 3064 3067 3068 3070 3071 3073 3073 3071 3071 3073
3067 3061 3055 3047 3040 3031 3024 3016 3009 3004 3000 2996 2993 2989 2986 2986 2989 2992 2998 3005 3011 3016 3018 3022 3026 3028 3030 3033 3035 3038 3040 3042 3045 3049 3053 3057 3059 3062 3065 3068 3070 3068 3068 3069 3071 3069 3069
3063 3056 3050 3042 3033 3025 3017 3009 3003 2998 2994 2989 2986 2984 2980 2978 2979 2982 2988 2995 3006 3008 3010 3014 3018 3028 3024 3026 3030 3034 3037 3039 3043 3046 3051 3054 3056 3059 3062 3064 3065 3064 3065 3067 3068 3069 3063
3058 3050 3043 3035 3026 3017 3008 3002 2996 2992 2988 2983 2980 2977 2975 2973 2974 2976 2982 2990 2999 2999 3000 3005 3013 3016 3018 3022 3026 3029 3034 3037 3040 3045 3048 3050 3054 3054 3059 3062 3063 3063 3062 3063 3064 3063 3059
3050 3042 3034 3026 3017 3007 3000 2994 2989 2984 2981 2978 2975 2972 2970 2969 2970 2971 2974 2977 2985 2989 2997 3003 3009 3010 3016 3018 3022 3026 3031 3035 3039 3041 3045 3049 3047 3053 3057 3058 3058 3059 3059 3059 3059 3058 3054
3044 3035 3027 3016 3006 2999 2993 2987 2983 2978 2975 2972 2969 2967 2966 2966 2965 2966 2968 2970 2981 2987 2990 2996 3003 3008 3012 3017 3019 3023 3028 3031 3036 3040 3042 3044 3047 3048 3051 3052 3054 3055 3055 3055 3055 3052 3050
3039 3029 3017 3007 2999 2993 2988 2982 2977 2972 2969 2967 2965 2963 2960 2961 2962 2962 2965 2967 2977 2981 2986 2991 2995 3002 3008 3012 3017 3020 3025 3030 3034 3039 3040 3041 3046 3046 3048 3049 3052 3052 3053 3052 3052 3052 3050
3033 3021 3009 3001 2994 2988 2982 2976 2971 2967 2965 2962 2959 2958 2955 2954 2955 2958 2963 2966 2972 2978 2979 2987 2990 2995 3002 3011 3014 3017 3022 3026 3033 3036 3036 3040 3040 3042 3044 3045 3048 3049 3048 3049 3049 3049 3046
3026 3014 3004 2996 2989 2983 2977 2971 2967 2962 2959 2957 2953 2949 2945 2944 2947 2954 2958 2964 2970 2976 2970 2978 2982 2989 2997 3005 3010 3014 3019 3024 3030 3033 3033 3038 3037 3040 3041 3042 3043 3044 3045 3045 3046 3048 3041
3021 3009 2998 2992 2985 2978 2973 2967 2962 2958 2955 2953 2950 2943 2939 2937 2943 2950 2955 2963 2968 2967 2972 2975 2978 2985 2994 3000 3007 3011 3015 3020 3025 3029 3029 3033 3033 3034 3036 3039 3040 3042 3044 3043 3043 3043 3030
3017 3005 2995 2988 2981 2975 2969 2963 2957 2955 2954 2950 2946 2939 2937 2938 2943 2949 2955 2966 2967 2965 2968 2971 2977 2988 2994 2999 3006 3010 3014 3017 3022 3025 3027 3029 3031 3030 3029 3032 3037 3037 3041 3039 3031 3024 3019
3014 3002 2992 2986 2979 2972 2966 2960 2955 2955 2953 2947 2941 2938 2937 2938 2942 2948 2957 2965 2960 2966 2966 2970 2982 2989 2993 2999 3004 3009 3013 3015 3018 3020 3025 3026 3027 3026 3028 3030 3034 3035 3035 3037 3036 3032 3027
3011 2999 2990 2984 2977 2971 2964 2959 2956 2954 2950 2945 2940 2937 2937 2940 2943 2950 2958 2961 2962 2965 2968 2976 2981 2986 2990 2996 3001 3006 3010 3012 3014 3017 3021 3023 3025 3025 3026 3028 3029 3030 3033 3034 3034 3028 3012
3010 2998 2988 2982 2976 2969 2964 2960 2957 2953 2948 2942 2941 2940 2941 2943 2948 2953 2957 2965 2966 2969 2975 2981 2982 2984 2989 2993 3000 3004 3008 3010 3012 3014 3018 3020 3023 3024 3023 3021 3023 3025 3026 3028 3028 3024 3011
3008 2996 2986 2980 2975 2968 2964 2960 2956 2950 2945 2938 2939 2942 2946 2949 2956 2959 2965 2967 2969 2973 2977 2980 2984 2986 2989 2995 3000 3005 3007 3008 3009 3012 3015 3019 3021 3019 3017 3017 3019 3022 3020 3021 3020 3012 3008
3008 2996 2985 2978 2974 2968 2964 2961 2956 2951 2948 2946 2942 2947 2951 2955 2960 2962 2963 2967 2971 2976 2979 2982 2984 2987 2991 2997 3002 3004 3006 3005 3007 3011 3015 3016 3017 3016 3013 3016 3016 3016 3014 3014 3009 3006 2995
3009 2998 2985 2978 2974 2970 2966 2962 2960 2956 2953 2953 2952 2954 2958 2959 2961 2966 2968 2971 2975 2979 2982 2985 2987 2990 2993 2997 2999 3002 3003 3004 3007 3010 3011 3014 3014 3014 3011 3011 3013 3010 3007 3005 3003 2997 2986
3008 2998 2988 2979 2976 2972 2967 2966 2964 2962 2961 2960 2960 2961 2962 2964 2967 2969 2972 2975 2978 2983 2985 2987 2990 2993 2995 2997 2999 3000 3002 3004 3007 3008 3009 3012 3010 3010 3006 3004 3003 2999 2996 2993 2990 2984 2979
3008 3000 2990 2981 2977 2973 2969 2968 2968 2965 2965 2966 2962 2961 2961 2965 2970 2973 2975 2979 2983 2985 2988 2990 2992 2993 2995 2997 2999 3000 3001 3003 3006 3006 3007 3008 3007 3005 2999 2997 2997 2993 2989 2984 2979 2975 2969
3007 3000 2992 2984 2977 2975 2972 2969 2969 2968 2968 2967 2966 2967 2969 2969 2972 2977 2979 2982 2985 2987 2989 2990 2992 2994 2995 2996 2997 2999 3000 3001 3003 3003 3004 3006 3005 3005 2996 2993 2988 2986 2983 2978 2974 2970 2965
3007 2999 2992 2984 2978 2974 2973 2971 2969 2969 2968 2967 2968 2969 2970 2972 2974 2978 2979 2983 2984 2986 2988 2990 2992 2993 2995 2995 2997 2998 2998 2999 2999 2999 3001 3002 3003 3004 2996 2992 2987 2984 2980 2975 2971 2966 2961
3005 2999 2991 2982 2977 2973 2970 2970 2970 2969 2969 2969 2969 2970 2971 2973 2975 2977 2981 2984 2986 2987 2988 2990 2991 2992 2993 2995 2997 2997 2996 2996 2994 2993 2995 2999 3002 3002 2999 2994 2985 2979 2977 2973 2968 2965 2959
3001 2997 2990 2980 2973 2969 2966 2966 2968 2968 2969 2969 2970 2970 2972 2975 2978 2980 2982 2984 2987 2988 2989 2990 2991 2991 2993 2994 2995 2996 2995 2994 2994 2993 2994 2996 2999 3002 2999 2998 2987 2978 2976 2971 2967 2965 2962
2998 2992 2987 2977 2969 2965 2962 2961 2964 2967 2967 2968 2969 2970 2973 2975 2977 2978 2982 2983 2985 2987 2988 2989 2990 2991 2992 2993 2995 2995 2994 2994 2993 2992 2993 2995 2996 2995 2997 2997 2985 2979 2976 2973 2970 2972 2963
2994 2988 2983 2975 2966 2961 2958 2956 2958 2963 2965 2967 2968 2969 2972 2974 2976 2976 2978 2982 2985 2987 2988 2989 2991 2990 2991 2993 2993 2993 2993 2992 2991 2991 2990 2992 2993 2993 2994 2993 2986 2979 2977 2975 2972 2968 2964
2991 2984 2978 2971 2963 2958 2954 2952 2954 2958 2963 2964 2967 2970 2972 2974 2976 2976 2978 2981 2983 2985 2987 2987 2989 2989 2990 2991 2991 2991 2990 2990 2990 2989 2988 2990 2989 2988 2988 2984 2982 2979 2975 2972 2969 2966 2962